This is the latest recevied weather packets stored in our database for station/object KG4LKY-5. If no packets are shown the sender has not sent any weather packets the latest 10 day(s).
| Time | Temp. | Humidity | Pressure | Rain* | Wind** | Luminosity | Snow |
|---|---|---|---|---|---|---|---|
| 1777705599 | 3.89° C | 100% | 1017 hPa | 0 mm | - | - | - |
| 1777705299 | 3.89° C | 100% | 1017 hPa | 0 mm | - | - | - |
| 1777704999 | 5° C | 100% | 1017.1 hPa | 0 mm | - | - | - |
| 1777704699 | 5° C | 100% | 1017.1 hPa | 0 mm | - | - | - |
| 1777704398 | 5° C | 100% | 1017 hPa | 0 mm | - | - | - |
| 1777704098 | 5° C | 100% | 1016.9 hPa | 0 mm | - | - | - |
| 1777703798 | 5.56° C | 100% | 1017 hPa | 0 mm | - | - | - |
| 1777703497 | 5° C | 97% | 1017.1 hPa | 0 mm | - | - | - |
| 1777703197 | 6.67° C | 92% | 1017 hPa | 0 mm | - | - | - |
| 1777702597 | 7.22° C | 92% | 1017.1 hPa | 0 mm | - | - | - |
| 1777702296 | 6.11° C | 94% | 1017.2 hPa | 0 mm | - | - | - |
| 1777701996 | 6.11° C | 97% | 1017.2 hPa | 0 mm | - | - | - |
| 1777701696 | 6.67° C | 96% | 1017.1 hPa | 0 mm | - | - | - |
| 1777701396 | 6.11° C | 87% | 1017.1 hPa | 0 mm | - | - | - |
| 1777700795 | 7.22° C | 83% | 1017.2 hPa | 0 mm | - | - | - |
| 1777700495 | 7.22° C | 84% | 1017.3 hPa | 0 mm | - | - | - |
| 1777700194 | 7.22° C | 84% | 1017.3 hPa | 0 mm | - | - | - |
| 1777699594 | 7.22° C | 83% | 1017.3 hPa | 0 mm | - | - | - |
| 1777699293 | 7.78° C | 83% | 1017.3 hPa | 0 mm | - | - | - |
| 1777698993 | 7.78° C | 81% | 1017.3 hPa | 0 mm | - | - | - |
| 1777698693 | 7.22° C | 83% | 1017.4 hPa | 0 mm | - | - | - |
| 1777698393 | 7.22° C | 83% | 1017.4 hPa | 0 mm | - | - | - |
| 1777698092 | 7.78° C | 81% | 1017.4 hPa | 0 mm | - | - | - |
| 1777697792 | 7.78° C | 82% | 1017.3 hPa | 0 mm | - | - | - |
| 1777697492 | 7.78° C | 79% | 1017.3 hPa | 0 mm | - | - | - |
* Rain since midnight (hover to see other rain measurements)
** Current wind speed in m/s (hover to see current wind gust speed)